Weather History for Aiken, SC

Change the Weather History Date:

Saturday, March 2, 2013

  Actual Average Record
Temperature  
Mean Temperature 37 °F -  
Max Temperature 42 °F 67 °F 77 °F (2012)
Min Temperature 32 °F 38 °F 32 °F (2011)
Degree Days  
Heating Degree Days 28    
Moisture  
Dew Point 34 °F    
Average Humidity 87    
Maximum Humidity 100    
Minimum Humidity 76    
Precipitation  
Precipitation 0.00 in - - ()
Sea Level Pressure  
Sea Level Pressure 29.93 in    
Wind  
Wind Speed 6 mph (WSW)    
Max Wind Speed 15 mph    
Max Gust Speed 21 mph    
Visibility 10 miles    
Events Rain    
Averages and records for this station are not official NWS values.
T = Trace of Precipitation, MM = Missing Value Source: NWS Daily Summary

Daily Weather History Graph

Daily Weather History Graph

Search for Another Location

Airport:

Trip Planner

Search our weather history database for the weather conditions in past years. The results will help you decide how hot, cold, wet, or windy it might be!

Date:

Astronomy

Mar. 02, 2013 Rise Set
Actual Time 6:53 AM EST 6:24 PM EST
Civil Twilight 6:28 AM EST 6:49 PM EST
Nautical Twilight 5:59 AM EST 7:18 PM EST
Astronomical Twilight 5:31 AM EST 7:47 PM EST
Moon 11:44 PM EST (3/2) 9:37 AM EST (3/2)
Length of Visible Light 12h 20m
Length of Day
11h 30m
Waning Gibbous, 74% of the Moon is Illuminated
Mar 2
Waning Gibbous
Mar 4
Last Quarter
Mar 11
New
Mar 19
First Quarter
Mar 27
Full

Hourly Weather History & Observations

Time (EST) Temp. Windchill Dew Point Humidity Pressure Visibility Wind Dir Wind Speed Gust Speed Precip Events Conditions
12:15 AM 35.6 °F 32.8 °F 32.0 °F 87% 29.97 in 10.0 mi SW 3.5 mph - N/A   Clear
12:35 AM 33.8 °F - 30.2 °F 87% 29.96 in 10.0 mi Calm Calm - N/A   Clear
1:15 AM 33.8 °F - 30.2 °F 87% 29.95 in 10.0 mi Calm Calm - N/A   Clear
1:35 AM 33.8 °F - 32.0 °F 93% 29.96 in 10.0 mi Calm Calm - N/A   Clear
2:15 AM 32.0 °F 28.7 °F 30.2 °F 93% 29.95 in 10.0 mi SW 3.5 mph - N/A   Clear
2:35 AM 32.0 °F 27.5 °F 30.2 °F 93% 29.94 in 10.0 mi SW 4.6 mph - N/A   Clear
2:55 AM 32.0 °F 27.5 °F 30.2 °F 93% 29.94 in 10.0 mi SW 4.6 mph - N/A   Clear
3:15 AM 32.0 °F 28.7 °F 30.2 °F 93% 29.93 in 10.0 mi SW 3.5 mph - N/A   Clear
3:35 AM 32.0 °F 28.7 °F 30.2 °F 93% 29.92 in 10.0 mi SW 3.5 mph - N/A   Clear
3:55 AM 32.0 °F 27.5 °F 30.2 °F 93% 29.92 in 10.0 mi SW 4.6 mph - N/A   Mostly Cloudy
4:15 AM 32.0 °F 27.5 °F 32.0 °F 100% 29.91 in 10.0 mi SW 4.6 mph - N/A   Mostly Cloudy
4:35 AM 32.0 °F 27.5 °F 32.0 °F 100% 29.91 in 10.0 mi SW 4.6 mph - N/A   Scattered Clouds
4:55 AM 33.8 °F 28.6 °F 32.0 °F 93% 29.91 in 10.0 mi SW 5.8 mph - N/A   Mostly Cloudy
5:15 AM 32.0 °F 26.4 °F 32.0 °F 100% 29.91 in 10.0 mi SW 5.8 mph - N/A   Mostly Cloudy
5:35 AM 32.0 °F 25.6 °F 32.0 °F 100% 29.91 in 10.0 mi SW 6.9 mph - N/A   Scattered Clouds
5:55 AM 33.8 °F 28.6 °F 32.0 °F 93% 29.91 in 10.0 mi SW 5.8 mph - N/A   Mostly Cloudy
6:15 AM 32.0 °F 25.6 °F 32.0 °F 100% 29.91 in 10.0 mi WSW 6.9 mph - N/A   Mostly Cloudy
6:35 AM 32.0 °F 25.6 °F 32.0 °F 100% 29.91 in 10.0 mi SW 6.9 mph - N/A   Mostly Cloudy
6:55 AM 33.8 °F 26.4 °F 32.0 °F 93% 29.91 in 10.0 mi SW 9.2 mph - N/A   Mostly Cloudy
7:15 AM 33.8 °F 27.0 °F 32.0 °F 93% 29.91 in 10.0 mi SW 8.1 mph - N/A   Overcast
7:35 AM 33.8 °F 27.7 °F 32.0 °F 93% 29.91 in 10.0 mi SW 6.9 mph - N/A   Overcast
7:55 AM 33.8 °F 26.4 °F 32.0 °F 93% 29.91 in 10.0 mi WSW 9.2 mph - N/A   Overcast
8:15 AM 35.6 °F 28.6 °F 33.8 °F 93% 29.92 in 10.0 mi WSW 9.2 mph - N/A   Scattered Clouds
8:35 AM 37.4 °F 30.8 °F 33.8 °F 87% 29.92 in 10.0 mi West 9.2 mph - N/A   Clear
8:55 AM 41.0 °F 34.3 °F 33.8 °F 76% 29.92 in 10.0 mi West 11.5 mph 17.3 mph N/A   Scattered Clouds
9:15 AM 41.0 °F 33.5 °F 33.8 °F 76% 29.92 in 10.0 mi West 13.8 mph 18.4 mph N/A   Scattered Clouds
9:35 AM 42.8 °F 35.8 °F 35.6 °F 76% 29.92 in 10.0 mi West 13.8 mph 18.4 mph N/A   Mostly Cloudy
9:55 AM 42.8 °F 37.0 °F 35.6 °F 76% 29.92 in 10.0 mi West 10.4 mph 16.1 mph N/A   Overcast
10:15 AM 42.8 °F 37.0 °F 35.6 °F 76% 29.92 in 10.0 mi WNW 10.4 mph - N/A   Overcast
10:35 AM 41.0 °F 33.9 °F 35.6 °F 81% 29.93 in 10.0 mi West 12.7 mph - N/A   Overcast
10:55 AM 41.0 °F 33.9 °F 35.6 °F 81% 29.93 in 10.0 mi West 12.7 mph 18.4 mph N/A   Overcast
11:15 AM 41.0 °F 33.9 °F 35.6 °F 81% 29.94 in 10.0 mi West 12.7 mph - N/A   Overcast
11:35 AM 42.8 °F 37.5 °F 35.6 °F 76% 29.93 in 10.0 mi WNW 9.2 mph 17.3 mph N/A   Overcast
11:55 AM 42.8 °F 37.0 °F 35.6 °F 76% 29.93 in 10.0 mi WNW 10.4 mph - N/A   Overcast
12:15 PM 41.0 °F 34.7 °F 35.6 °F 81% 29.93 in 10.0 mi WNW 10.4 mph 16.1 mph N/A   Overcast
12:35 PM 41.0 °F 34.3 °F 35.6 °F 81% 29.93 in 10.0 mi WNW 11.5 mph - N/A   Overcast
12:55 PM 41.0 °F 35.8 °F 35.6 °F 81% 29.92 in 10.0 mi West 8.1 mph - N/A   Drizzle
1:15 PM 42.8 °F 37.0 °F 35.6 °F 76% 29.92 in 10.0 mi WNW 10.4 mph - N/A   Overcast
1:35 PM 41.0 °F 34.7 °F 37.4 °F 87% 29.92 in 7.0 mi WNW 10.4 mph - N/A Rain Rain
1:55 PM 42.8 °F 38.0 °F 42.8 °F 100% 29.91 in 10.0 mi West 8.1 mph - N/A   Overcast
2:15 PM 42.8 °F 36.2 °F 39.2 °F 87% 29.91 in 10.0 mi West 12.7 mph 17.3 mph N/A   Overcast
2:35 PM 42.8 °F 38.6 °F 41.0 °F 93% 29.91 in 10.0 mi WSW 6.9 mph - N/A   Overcast
2:55 PM 42.8 °F 37.0 °F 37.4 °F 81% 29.90 in 10.0 mi WNW 10.4 mph - N/A   Mostly Cloudy
3:15 PM 41.0 °F 35.8 °F 39.2 °F 93% 29.90 in 10.0 mi West 8.1 mph - N/A   Overcast
3:55 PM 42.8 °F 37.0 °F 39.2 °F 87% 29.90 in 10.0 mi WSW 10.4 mph - N/A   Mostly Cloudy
4:15 PM 42.8 °F 37.5 °F 41.0 °F 93% 29.90 in 10.0 mi West 9.2 mph - N/A   Overcast
4:35 PM 42.8 °F 38.6 °F 37.4 °F 81% 29.90 in 10.0 mi WSW 6.9 mph - N/A   Overcast
4:55 PM 42.8 °F 36.6 °F 37.4 °F 81% 29.91 in 10.0 mi WSW 11.5 mph - N/A   Mostly Cloudy
5:15 PM 42.8 °F 36.6 °F 37.4 °F 81% 29.91 in 10.0 mi WSW 11.5 mph - N/A   Mostly Cloudy
5:35 PM 41.0 °F 33.1 °F 37.4 °F 87% 29.92 in 10.0 mi West 15.0 mph 20.7 mph N/A   Overcast
5:55 PM 41.0 °F 38.0 °F 37.4 °F 87% 29.93 in 10.0 mi WNW 4.6 mph - N/A   Overcast
6:35 PM 41.0 °F - 35.6 °F 81% 29.93 in 10.0 mi Calm Calm - N/A   Overcast
6:55 PM 39.2 °F - 35.6 °F 87% 29.93 in 10.0 mi Calm Calm - N/A   Overcast
7:15 PM 39.2 °F 37.0 °F 37.4 °F 93% 29.94 in 10.0 mi South 3.5 mph - N/A   Overcast
7:35 PM 39.2 °F 37.0 °F 37.4 °F 93% 29.94 in 10.0 mi South 3.5 mph - N/A   Overcast
7:55 PM 39.2 °F - 39.2 °F 100% 29.94 in 10.0 mi Calm Calm - N/A   Overcast
8:15 PM 39.2 °F 32.5 °F 37.4 °F 93% 29.95 in 10.0 mi WSW 10.4 mph - N/A   Overcast
8:35 PM 39.2 °F 33.6 °F 35.6 °F 87% 29.96 in 10.0 mi WSW 8.1 mph - N/A   Overcast
9:15 PM 37.4 °F 30.8 °F 32.0 °F 81% 29.97 in 10.0 mi WSW 9.2 mph - N/A   Overcast
9:35 PM 37.4 °F 30.8 °F 32.0 °F 81% 29.97 in 10.0 mi WSW 9.2 mph - N/A   Overcast
9:55 PM 37.4 °F 30.3 °F 32.0 °F 81% 29.97 in 10.0 mi WSW 10.4 mph 16.1 mph N/A   Overcast
10:15 PM 37.4 °F 30.3 °F 32.0 °F 81% 29.97 in 10.0 mi WSW 10.4 mph - N/A   Overcast
10:35 PM 37.4 °F 31.4 °F 32.0 °F 81% 29.97 in 10.0 mi West 8.1 mph - N/A   Overcast
10:55 PM 35.6 °F 29.9 °F 30.2 °F 81% 29.98 in 10.0 mi West 6.9 mph - N/A   Mostly Cloudy
11:15 PM 35.6 °F 29.2 °F 30.2 °F 81% 29.97 in 10.0 mi West 8.1 mph - N/A   Scattered Clouds
11:35 PM 33.8 °F 27.7 °F 30.2 °F 87% 29.97 in 10.0 mi West 6.9 mph - N/A   Scattered Clouds
11:55 PM 33.8 °F 27.7 °F 30.2 °F 87% 29.97 in 10.0 mi West 6.9 mph - N/A   Scattered Clouds